Time,TemperatureF,DewpointF,PressureIn,WindDirection,WindDirectionDegrees,WindSpeedMPH,WindSpeedGustMPH,Humidity,HourlyPrecipIn,Conditions,Clouds,dailyrainin,SoftwareType,DateUTC
2013-05-20 00:02:00,70.0,58.0,-100.00,ESE,110,0.0,0.0,66,-99.99,,,-99.99,,2013-05-20 05:02:00,
2013-05-20 00:32:00,67.0,62.0,-100.00,NNE,20,0.0,0.0,84,-99.99,,,-99.99,,2013-05-20 05:32:00,
2013-05-20 00:42:00,67.0,62.0,-100.00,NNE,20,0.0,0.0,84,-99.99,,,-99.99,,2013-05-20 05:42:00,
2013-05-20 00:52:00,67.0,62.0,-100.00,NNE,20,0.0,0.0,84,-99.99,,,-99.99,,2013-05-20 05:52:00,
2013-05-20 01:01:00,67.0,62.0,-100.00,NNE,20,0.0,0.0,84,-99.99,,,-99.99,,2013-05-20 06:01:00,
2013-05-20 01:11:00,67.0,62.0,-100.00,NNE,20,0.0,0.0,84,-99.99,,,-99.99,,2013-05-20 06:11:00,
2013-05-20 01:32:00,69.0,62.0,-100.00,SE,135,0.0,0.0,79,-99.99,,,-99.99,,2013-05-20 06:32:00,
2013-05-20 01:42:00,69.0,62.0,-100.00,SE,135,0.0,0.0,79,-99.99,,,-99.99,,2013-05-20 06:42:00,
2013-05-20 01:52:00,69.0,62.0,-100.00,SE,135,0.0,0.0,79,-99.99,,,-99.99,,2013-05-20 06:52:00,
2013-05-20 02:02:00,69.0,62.0,-100.00,SE,135,0.0,0.0,79,-99.99,,,-99.99,,2013-05-20 07:02:00,
2013-05-20 02:12:00,69.0,62.0,-100.00,SE,135,0.0,0.0,79,-99.99,,,-99.99,,2013-05-20 07:12:00,
2013-05-20 02:32:00,65.0,62.0,-100.00,SSW,210,0.0,0.0,91,-99.99,,,-99.99,,2013-05-20 07:32:00,
2013-05-20 02:42:00,65.0,62.0,-100.00,SSW,210,0.0,0.0,91,-99.99,,,-99.99,,2013-05-20 07:42:00,
2013-05-20 02:52:00,65.0,62.0,-100.00,SSW,210,0.0,0.0,91,-99.99,,,-99.99,,2013-05-20 07:52:00,
2013-05-20 03:01:00,65.0,62.0,-100.00,SSW,210,0.0,0.0,91,-99.99,,,-99.99,,2013-05-20 08:01:00,
2013-05-20 03:11:00,65.0,62.0,-100.00,SSW,210,0.0,0.0,91,-99.99,,,-99.99,,2013-05-20 08:11:00,
2013-05-20 03:12:00,62.0,61.0,-100.00,East,85,0.0,0.0,96,-99.99,,,-99.99,,2013-05-20 08:12:00,
2013-05-20 03:32:00,62.0,61.0,-100.00,East,85,0.0,0.0,96,-99.99,,,-99.99,,2013-05-20 08:32:00,
2013-05-20 03:42:00,62.0,61.0,-100.00,East,85,0.0,0.0,96,-99.99,,,-99.99,,2013-05-20 08:42:00,
2013-05-20 03:52:00,62.0,61.0,-100.00,East,85,0.0,0.0,96,-99.99,,,-99.99,,2013-05-20 08:52:00,
2013-05-20 04:02:00,62.0,61.0,-100.00,East,85,0.0,0.0,96,-99.99,,,-99.99,,2013-05-20 09:02:00,
2013-05-20 04:12:00,62.0,61.0,-100.00,ESE,110,0.0,0.0,96,-99.99,,,-99.99,,2013-05-20 09:12:00,
2013-05-20 04:33:00,62.0,61.0,-100.00,ESE,110,0.0,0.0,96,-99.99,,,-99.99,,2013-05-20 09:33:00,
2013-05-20 04:43:00,62.0,61.0,-100.00,ESE,110,0.0,0.0,96,-99.99,,,-99.99,,2013-05-20 09:43:00,
2013-05-20 04:53:00,62.0,61.0,-100.00,ESE,110,0.0,0.0,96,-99.99,,,-99.99,,2013-05-20 09:53:00,
2013-05-20 05:03:00,62.0,61.0,-100.00,ESE,110,0.0,0.0,96,-99.99,,,-99.99,,2013-05-20 10:03:00,
2013-05-20 05:33:00,62.0,60.0,-100.00,SE,130,0.0,0.0,96,-99.99,,,-99.99,,2013-05-20 10:33:00,
2013-05-20 05:42:00,62.0,60.0,-100.00,SE,130,0.0,0.0,96,-99.99,,,-99.99,,2013-05-20 10:42:00,
2013-05-20 05:52:00,62.0,60.0,-100.00,SE,130,0.0,0.0,96,-99.99,,,-99.99,,2013-05-20 10:52:00,
2013-05-20 06:02:00,62.0,60.0,-100.00,SE,130,0.0,0.0,96,-99.99,,,-99.99,,2013-05-20 11:02:00,
2013-05-20 06:12:00,62.0,60.0,-100.00,SE,130,0.0,0.0,96,-99.99,,,-99.99,,2013-05-20 11:12:00,
2013-05-20 06:32:00,62.0,60.0,-100.00,SE,130,0.0,0.0,96,-99.99,,,-99.99,,2013-05-20 11:32:00,
2013-05-20 06:42:00,62.0,60.0,-100.00,SE,130,0.0,0.0,96,-99.99,,,-99.99,,2013-05-20 11:42:00,
2013-05-20 06:52:00,62.0,60.0,-100.00,SE,130,0.0,0.0,96,-99.99,,,-99.99,,2013-05-20 11:52:00,
2013-05-20 07:01:00,62.0,60.0,-100.00,SE,130,0.0,0.0,96,-99.99,,,-99.99,,2013-05-20 12:01:00,
2013-05-20 07:11:00,62.0,60.0,-100.00,SE,130,0.0,0.0,96,-99.99,,,-99.99,,2013-05-20 12:11:00,
2013-05-20 07:32:00,62.0,61.0,-100.00,South,170,0.0,0.0,96,-99.99,,,-99.99,,2013-05-20 12:32:00,
2013-05-20 07:42:00,62.0,61.0,-100.00,South,170,0.0,0.0,96,-99.99,,,-99.99,,2013-05-20 12:42:00,
2013-05-20 07:52:00,62.0,61.0,-100.00,South,170,0.0,0.0,96,-99.99,,,-99.99,,2013-05-20 12:52:00,
2013-05-20 08:01:00,62.0,61.0,-100.00,South,170,0.0,0.0,96,-99.99,,,-99.99,,2013-05-20 13:01:00,
2013-05-20 08:11:00,62.0,61.0,-100.00,South,170,0.0,0.0,96,-99.99,,,-99.99,,2013-05-20 13:11:00,
2013-05-20 09:32:00,65.0,62.0,-100.00,South,175,0.0,0.0,88,-99.99,,,-99.99,,2013-05-20 14:32:00,
2013-05-20 09:42:00,65.0,62.0,-100.00,South,175,0.0,0.0,88,-99.99,,,-99.99,,2013-05-20 14:42:00,
2013-05-20 09:52:00,65.0,62.0,-100.00,South,175,0.0,0.0,88,-99.99,,,-99.99,,2013-05-20 14:52:00,
2013-05-20 10:01:00,65.0,62.0,-100.00,South,175,0.0,0.0,88,-99.99,,,-99.99,,2013-05-20 15:01:00,
2013-05-20 10:11:00,65.0,62.0,-100.00,South,175,0.0,0.0,88,-99.99,,,-99.99,,2013-05-20 15:11:00,
2013-05-20 10:12:00,67.0,60.0,-100.00,South,185,0.0,0.0,77,-99.99,,,-99.99,,2013-05-20 15:12:00,
2013-05-20 10:33:00,67.0,60.0,-100.00,South,185,0.0,0.0,77,-99.99,,,-99.99,,2013-05-20 15:33:00,
2013-05-20 10:42:00,67.0,60.0,-100.00,South,185,0.0,0.0,77,-99.99,,,-99.99,,2013-05-20 15:42:00,
2013-05-20 10:53:00,67.0,60.0,-100.00,South,185,0.0,0.0,77,-99.99,,,-99.99,,2013-05-20 15:53:00,
2013-05-20 11:03:00,67.0,60.0,-100.00,South,185,0.0,0.0,77,-99.99,,,-99.99,,2013-05-20 16:03:00,
2013-05-20 11:33:00,69.0,59.0,-100.00,SSW,200,0.0,0.0,70,-99.99,,,-99.99,,2013-05-20 16:33:00,
2013-05-20 11:42:00,69.0,59.0,-100.00,SSW,200,0.0,0.0,70,-99.99,,,-99.99,,2013-05-20 16:42:00,
2013-05-20 11:53:00,69.0,59.0,-100.00,SSW,200,0.0,0.0,70,-99.99,,,-99.99,,2013-05-20 16:53:00,
2013-05-20 12:02:00,69.0,59.0,-100.00,SSW,200,0.0,0.0,70,-99.99,,,-99.99,,2013-05-20 17:02:00,
2013-05-20 12:12:00,69.0,59.0,-100.00,SSW,200,0.0,0.0,70,-99.99,,,-99.99,,2013-05-20 17:12:00,
2013-05-20 12:33:00,71.0,56.0,-100.00,SSE,165,0.0,0.0,59,-99.99,,,-99.99,,2013-05-20 17:33:00,
2013-05-20 12:45:00,71.0,56.0,-100.00,SSE,165,0.0,0.0,59,-99.99,,,-99.99,,2013-05-20 17:45:00,
2013-05-20 12:53:00,71.0,56.0,-100.00,SSE,165,0.0,0.0,59,-99.99,,,-99.99,,2013-05-20 17:53:00,
2013-05-20 13:02:00,71.0,56.0,-100.00,SSE,165,0.0,0.0,59,-99.99,,,-99.99,,2013-05-20 18:02:00,
2013-05-20 13:12:00,71.0,56.0,-100.00,SSE,165,0.0,0.0,59,-99.99,,,-99.99,,2013-05-20 18:12:00,
2013-05-20 13:33:00,75.0,56.0,-100.00,South,190,0.0,0.0,52,-99.99,,,-99.99,,2013-05-20 18:33:00,
2013-05-20 13:42:00,75.0,56.0,-100.00,South,190,0.0,0.0,52,-99.99,,,-99.99,,2013-05-20 18:42:00,
2013-05-20 13:55:00,75.0,56.0,-100.00,South,190,0.0,0.0,52,-99.99,,,-99.99,,2013-05-20 18:55:00,
2013-05-20 14:04:00,75.0,56.0,-100.00,South,190,0.0,0.0,52,-99.99,,,-99.99,,2013-05-20 19:04:00,
2013-05-20 14:11:00,75.0,56.0,-100.00,South,190,0.0,0.0,52,-99.99,,,-99.99,,2013-05-20 19:11:00,
2013-05-20 14:12:00,76.0,55.0,-100.00,SW,215,0.0,0.0,49,-99.99,,,-99.99,,2013-05-20 19:12:00,
2013-05-20 14:33:00,76.0,55.0,-100.00,SW,215,0.0,0.0,49,-99.99,,,-99.99,,2013-05-20 19:33:00,
2013-05-20 14:42:00,76.0,55.0,-100.00,SW,215,0.0,0.0,49,-99.99,,,-99.99,,2013-05-20 19:42:00,
2013-05-20 14:52:00,76.0,55.0,-100.00,SW,215,0.0,0.0,49,-99.99,,,-99.99,,2013-05-20 19:52:00,
2013-05-20 15:01:00,76.0,55.0,-100.00,SW,215,0.0,0.0,49,-99.99,,,-99.99,,2013-05-20 20:01:00,
2013-05-20 15:32:00,78.0,55.0,-100.00,SSW,205,0.0,0.0,46,-99.99,,,-99.99,,2013-05-20 20:32:00,
2013-05-20 15:42:00,78.0,55.0,-100.00,SSW,205,0.0,0.0,46,-99.99,,,-99.99,,2013-05-20 20:42:00,
2013-05-20 15:52:00,78.0,55.0,-100.00,SSW,205,0.0,0.0,46,-99.99,,,-99.99,,2013-05-20 20:52:00,
2013-05-20 16:01:00,78.0,55.0,-100.00,SSW,205,0.0,0.0,46,-99.99,,,-99.99,,2013-05-20 21:01:00,
2013-05-20 16:11:00,78.0,55.0,-100.00,SSW,205,0.0,0.0,46,-99.99,,,-99.99,,2013-05-20 21:11:00,
2013-05-20 16:33:00,77.0,53.0,-100.00,SSW,210,0.0,1.0,43,-99.99,,,-99.99,,2013-05-20 21:33:00,
2013-05-20 16:43:00,77.0,53.0,-100.00,SSW,210,0.0,1.0,43,-99.99,,,-99.99,,2013-05-20 21:43:00,
2013-05-20 16:53:00,77.0,53.0,-100.00,SSW,210,0.0,1.0,43,-99.99,,,-99.99,,2013-05-20 21:53:00,
2013-05-20 17:02:00,77.0,53.0,-100.00,SSW,210,0.0,1.0,43,-99.99,,,-99.99,,2013-05-20 22:02:00,
2013-05-20 17:12:00,77.0,53.0,-100.00,SSW,210,0.0,1.0,43,-99.99,,,-99.99,,2013-05-20 22:12:00,
2013-05-20 17:33:00,77.0,54.0,-100.00,SW,215,0.0,0.0,45,-99.99,,,-99.99,,2013-05-20 22:33:00,
2013-05-20 17:42:00,77.0,54.0,-100.00,SW,215,0.0,0.0,45,-99.99,,,-99.99,,2013-05-20 22:42:00,
2013-05-20 17:52:00,77.0,54.0,-100.00,SW,215,0.0,0.0,45,-99.99,,,-99.99,,2013-05-20 22:52:00,
2013-05-20 18:02:00,77.0,54.0,-100.00,SW,215,0.0,0.0,45,-99.99,,,-99.99,,2013-05-20 23:02:00,
2013-05-20 18:32:00,76.0,53.0,-100.00,SW,235,0.0,0.0,44,-99.99,,,-99.99,,2013-05-20 23:32:00,
2013-05-20 18:42:00,76.0,53.0,-100.00,SW,235,0.0,0.0,44,-99.99,,,-99.99,,2013-05-20 23:42:00,
2013-05-20 18:53:00,76.0,53.0,-100.00,SW,235,0.0,0.0,44,-99.99,,,-99.99,,2013-05-20 23:53:00,
2013-05-20 19:01:00,76.0,53.0,-100.00,SW,235,0.0,0.0,44,-99.99,,,-99.99,,2013-05-21 00:01:00,
2013-05-20 19:11:00,76.0,53.0,-100.00,SW,235,0.0,0.0,44,-99.99,,,-99.99,,2013-05-21 00:11:00,
2013-05-20 19:32:00,74.0,52.0,-100.00,SW,220,0.0,0.0,46,-99.99,,,-99.99,,2013-05-21 00:32:00,
2013-05-20 19:42:00,74.0,52.0,-100.00,SW,220,0.0,0.0,46,-99.99,,,-99.99,,2013-05-21 00:42:00,
2013-05-20 19:52:00,74.0,52.0,-100.00,SW,220,0.0,0.0,46,-99.99,,,-99.99,,2013-05-21 00:52:00,
2013-05-20 20:01:00,74.0,52.0,-100.00,SW,220,0.0,0.0,46,-99.99,,,-99.99,,2013-05-21 01:01:00,
2013-05-20 20:11:00,74.0,52.0,-100.00,SW,220,0.0,0.0,46,-99.99,,,-99.99,,2013-05-21 01:11:00,
2013-05-20 20:32:00,71.0,53.0,-100.00,WSW,240,0.0,0.0,52,-99.99,,,-99.99,,2013-05-21 01:32:00,
2013-05-20 20:42:00,71.0,53.0,-100.00,WSW,240,0.0,0.0,52,-99.99,,,-99.99,,2013-05-21 01:42:00,
2013-05-20 20:53:00,71.0,53.0,-100.00,WSW,240,0.0,0.0,52,-99.99,,,-99.99,,2013-05-21 01:53:00,
2013-05-20 21:02:00,71.0,53.0,-100.00,WSW,240,0.0,0.0,52,-99.99,,,-99.99,,2013-05-21 02:02:00,
2013-05-20 21:11:00,71.0,53.0,-100.00,WSW,240,0.0,0.0,52,-99.99,,,-99.99,,2013-05-21 02:11:00,
2013-05-20 21:32:00,67.0,55.0,-100.00,North,10,0.0,0.0,66,-99.99,,,-99.99,,2013-05-21 02:32:00,
2013-05-20 21:42:00,67.0,55.0,-100.00,North,10,0.0,0.0,66,-99.99,,,-99.99,,2013-05-21 02:42:00,
2013-05-20 21:52:00,67.0,55.0,-100.00,North,10,0.0,0.0,66,-99.99,,,-99.99,,2013-05-21 02:52:00,
2013-05-20 22:02:00,67.0,55.0,-100.00,North,10,0.0,0.0,66,-99.99,,,-99.99,,2013-05-21 03:02:00,
2013-05-20 22:11:00,67.0,55.0,-100.00,North,10,0.0,0.0,66,-99.99,,,-99.99,,2013-05-21 03:11:00,
2013-05-20 22:13:00,63.0,57.0,-100.00,ENE,70,0.0,0.0,83,-99.99,,,-99.99,,2013-05-21 03:13:00,
2013-05-20 22:33:00,63.0,57.0,-100.00,ENE,70,0.0,0.0,83,-99.99,,,-99.99,,2013-05-21 03:33:00,
2013-05-20 22:43:00,63.0,57.0,-100.00,ENE,70,0.0,0.0,83,-99.99,,,-99.99,,2013-05-21 03:43:00,
2013-05-20 22:53:00,63.0,57.0,-100.00,ENE,70,0.0,0.0,83,-99.99,,,-99.99,,2013-05-21 03:53:00,
2013-05-20 23:03:00,63.0,57.0,-100.00,ENE,70,0.0,0.0,83,-99.99,,,-99.99,,2013-05-21 04:03:00,
2013-05-20 23:33:00,63.0,59.0,-100.00,NE,45,0.0,0.0,89,-99.99,,,-99.99,,2013-05-21 04:33:00,
2013-05-20 23:42:00,63.0,59.0,-100.00,NE,45,0.0,0.0,89,-99.99,,,-99.99,,2013-05-21 04:42:00,
2013-05-20 23:53:00,63.0,59.0,-100.00,NE,45,0.0,0.0,89,-99.99,,,-99.99,,2013-05-21 04:53:00,